| time (UTC) | temp F | wind direction | speed MPH | gust MPH | rain 1hr in | rain 24hr in | rain mn in | humidity % | barometer mb |
| 20260510185232 | 73 | 188 | 7.0 | 8.0 | 0.00 | 0.00 | 0.00 | 43 | 1010.5 |
| 20260510184727 | 72 | 177 | 10.0 | 11.0 | 0.00 | 0.00 | 0.00 | 44 | 1010.6 |
| 20260510184225 | 73 | 167 | 8.0 | 10.0 | 0.00 | 0.00 | 0.00 | 45 | 1010.7 |
| 20260510183720 | 73 | 192 | 6.0 | 7.0 | 0.00 | 0.00 | 0.00 | 45 | 1010.7 |
| 20260510183215 | 73 | 187 | 7.0 | 8.0 | 0.00 | 0.00 | 0.00 | 44 | 1010.6 |
| 20260510182711 | 72 | 166 | 9.0 | 10.0 | 0.00 | 0.00 | 0.00 | 46 | 1010.8 |
| 20260510182207 | 71 | 212 | 5.0 | 6.0 | 0.00 | 0.00 | 0.00 | 47 | 1010.8 |
| 20260510181704 | 72 | 172 | 5.0 | 7.0 | 0.00 | 0.00 | 0.00 | 47 | 1010.8 |
| 20260510181201 | 71 | 211 | 9.0 | 10.0 | 0.00 | 0.00 | 0.00 | 46 | 1011.0 |
| 20260510180657 | 71 | 169 | 9.0 | 9.0 | 0.00 | 0.00 | 0.00 | 46 | 1011.2 |
| 20260510180155 | 71 | 200 | 12.0 | 14.0 | 0.00 | 0.00 | 0.00 | 45 | 1011.4 |
| 20260510175651 | 70 | 172 | 11.0 | 14.0 | 0.00 | 0.00 | 0.00 | 47 | 1011.3 |
| 20260510175147 | 71 | 187 | 9.0 | 10.0 | 0.00 | 0.00 | 0.00 | 46 | 1011.3 |
| 20260510174644 | 71 | 200 | 9.0 | 11.0 | 0.00 | 0.00 | 0.00 | 47 | 1011.5 |
| 20260510174142 | 71 | 175 | 11.0 | 11.0 | 0.00 | 0.00 | 0.00 | 48 | 1011.4 |
| 20260510173637 | 70 | 137 | 12.0 | 16.0 | 0.00 | 0.00 | 0.00 | 50 | 1011.5 |
| 20260510173134 | 70 | 180 | 8.0 | 10.0 | 0.00 | 0.00 | 0.00 | 51 | 1011.5 |
| 20260510172629 | 70 | 192 | 9.0 | 11.0 | 0.00 | 0.00 | 0.00 | 50 | 1011.7 |
| 20260510172126 | 69 | 137 | 5.0 | 7.0 | 0.00 | 0.00 | 0.00 | 53 | 1011.8 |
| 20260510171622 | 69 | 174 | 8.0 | 10.0 | 0.00 | 0.00 | 0.00 | 52 | 1011.7 |
| 20260510171120 | 69 | 146 | 11.0 | 14.0 | 0.00 | 0.00 | 0.00 | 54 | 1011.9 |
| 20260510170616 | 70 | 150 | 5.0 | 6.0 | 0.00 | 0.00 | 0.00 | 54 | 1011.8 |
| 20260510170113 | 69 | 168 | 9.0 | 10.0 | 0.00 | 0.00 | 0.00 | 56 | 1012.0 |
| 20260510165608 | 68 | 219 | 8.0 | 9.0 | 0.00 | 0.00 | 0.00 | 58 | 1012.0 |
| 20260510165104 | 67 | 179 | 6.0 | 7.0 | 0.00 | 0.00 | 0.00 | 59 | 1012.0 |
| 20260510164602 | 67 | 160 | 5.0 | 7.0 | 0.00 | 0.00 | 0.00 | 60 | 1012.0 |
| 20260510164058 | 66 | 119 | 6.0 | 7.0 | 0.00 | 0.00 | 0.00 | 61 | 1012.4 |
| 20260510163554 | 65 | 172 | 5.0 | 6.0 | 0.00 | 0.00 | 0.00 | 62 | 1012.3 |
| 20260510163051 | 65 | 171 | 6.0 | 8.0 | 0.00 | 0.00 | 0.00 | 62 | 1012.2 |
| 20260510162545 | 64 | 142 | 7.0 | 8.0 | 0.00 | 0.00 | 0.00 | 63 | 1012.5 |
| 20260510162042 | 64 | 166 | 4.0 | 5.0 | 0.00 | 0.00 | 0.00 | 63 | 1012.5 |
| 20260510161538 | 62 | 141 | 4.0 | 6.0 | 0.00 | 0.00 | 0.00 | 64 | 1012.3 |
| 20260510161035 | 62 | 167 | 4.0 | 5.0 | 0.00 | 0.00 | 0.00 | 64 | 1012.5 |
| 20260510160532 | 62 | 169 | 4.0 | 5.0 | 0.00 | 0.00 | 0.00 | 65 | 1012.6 |
| 20260510160031 | 62 | 153 | 3.0 | 3.0 | 0.00 | 0.00 | 0.00 | 65 | 1012.8 |
| 20260510155528 | 61 | 170 | 7.0 | 8.0 | 0.00 | 0.00 | 0.00 | 65 | 1012.8 |
| 20260510155025 | 61 | 176 | 7.0 | 7.0 | 0.00 | 0.00 | 0.00 | 65 | 1013.0 |
| 20260510154520 | 60 | 124 | 3.0 | 3.0 | 0.00 | 0.00 | 0.00 | 67 | 1013.0 |
| 20260510154015 | 59 | 143 | 5.0 | 6.0 | 0.00 | 0.00 | 0.00 | 68 | 1012.9 |
| 20260510153510 | 59 | 120 | 7.0 | 7.0 | 0.00 | 0.00 | 0.00 | 68 | 1013.1 |
| 20260510153008 | 58 | 167 | 4.0 | 5.0 | 0.00 | 0.00 | 0.00 | 69 | 1013.0 |
| 20260510152505 | 58 | 127 | 4.0 | 5.0 | 0.00 | 0.00 | 0.00 | 69 | 1013.1 |
| 20260510152001 | 58 | 150 | 3.0 | 5.0 | 0.00 | 0.00 | 0.00 | 69 | 1013.2 |
| 20260510151458 | 57 | 180 | 5.0 | 7.0 | 0.00 | 0.00 | 0.00 | 70 | 1013.4 |
| 20260510150954 | 56 | 196 | 4.0 | 5.0 | 0.00 | 0.00 | 0.00 | 70 | 1013.5 |
| 20260510150450 | 55 | 178 | 6.0 | 7.0 | 0.00 | 0.00 | 0.00 | 71 | 1013.6 |
| 20260510145946 | 55 | 162 | 3.0 | 5.0 | 0.00 | 0.00 | 0.00 | 73 | 1013.4 |
| 20260510145442 | 53 | 198 | 5.0 | 6.0 | 0.00 | 0.00 | 0.00 | 76 | 1013.7 |
| 20260510144939 | 52 | 132 | 3.0 | 3.0 | 0.00 | 0.00 | 0.00 | 81 | 1013.6 |
| 20260510144436 | 51 | 130 | 4.0 | 5.0 | 0.00 | 0.00 | 0.00 | 81 | 1013.7 |
| 20260510143931 | 51 | 154 | 3.0 | 3.0 | 0.00 | 0.00 | 0.00 | 82 | 1013.5 |
| 20260510143426 | 50 | 127 | 3.0 | 3.0 | 0.00 | 0.00 | 0.00 | 84 | 1013.7 |
| 20260510142924 | 49 | 162 | 3.0 | 5.0 | 0.00 | 0.00 | 0.00 | 84 | 1013.8 |
| 20260510142415 | 49 | 170 | 3.0 | 5.0 | 0.00 | 0.00 | 0.00 | 85 | 1013.8 |
| 20260510141911 | 49 | 143 | 4.0 | 5.0 | 0.00 | 0.00 | 0.00 | 85 | 1013.7 |
| 20260510141409 | 48 | 157 | 2.0 | 2.0 | 0.00 | 0.00 | 0.00 | 85 | 1013.6 |
| 20260510140906 | 48 | 160 | 3.0 | 3.0 | 0.00 | 0.00 | 0.00 | 86 | 1013.8 |
| 20260510140401 | 47 | 158 | 2.0 | 2.0 | 0.00 | 0.00 | 0.00 | 86 | 1013.7 |
| 20260510135855 | 48 | 127 | 0.0 | 0.0 | 0.00 | 0.00 | 0.00 | 87 | 1013.6 |
| 20260510135351 | 47 | 120 | 0.0 | 0.0 | 0.00 | 0.00 | 0.00 | 90 | 1013.6 |
| 20260510134849 | 47 | 113 | 0.0 | 0.0 | 0.00 | 0.00 | 0.00 | 89 | 1013.6 |
| 20260510134346 | 45 | 120 | 0.0 | 0.0 | 0.00 | 0.00 | 0.00 | 94 | 1013.7 |
| 20260510133842 | 45 | 119 | 0.0 | 0.0 | 0.00 | 0.00 | 0.00 | 93 | 1013.8 |
| 20260510133338 | 44 | 119 | 0.0 | 0.0 | 0.00 | 0.00 | 0.00 | 95 | 1013.8 |
| 20260510132834 | 43 | 132 | 1.0 | 1.0 | 0.00 | 0.00 | 0.00 | 96 | 1013.9 |
| 20260510132332 | 43 | 122 | 0.0 | 0.0 | 0.00 | 0.00 | 0.00 | 96 | 1013.9 |
| 20260510131829 | 43 | 105 | 0.0 | 0.0 | 0.00 | 0.00 | 0.00 | 95 | 1013.8 |
| 20260510131326 | 42 | 105 | 0.0 | 0.0 | 0.00 | 0.00 | 0.00 | 97 | 1014.0 |
| 20260510130823 | 41 | 105 | 0.0 | 0.0 | 0.00 | 0.00 | 0.00 | 98 | 1013.9 |
| 20260510130320 | 40 | 105 | 0.0 | 0.0 | 0.00 | 0.00 | 0.00 | 97 | 1014.1 |
| 20260510125816 | 39 | 105 | 0.0 | 0.0 | 0.00 | 0.00 | 0.00 | 99 | 1014.0 |
| 20260510125312 | 37 | 105 | 0.0 | 0.0 | 0.00 | 0.00 | 0.00 | 99 | 1014.0 |
| 20260510124809 | 37 | 105 | 0.0 | 0.0 | 0.00 | 0.00 | 0.00 | 99 | 1013.8 |
| 20260510124306 | 36 | 105 | 0.0 | 0.0 | 0.00 | 0.00 | 0.00 | 99 | 1014.0 |
| 20260510123802 | 36 | 105 | 0.0 | 0.0 | 0.00 | 0.00 | 0.00 | 99 | 1013.8 |
| 20260510123257 | 36 | 105 | 0.0 | 0.0 | 0.00 | 0.00 | 0.00 | 99 | 1013.7 |
| 20260510122754 | 36 | 105 | 0.0 | 0.0 | 0.00 | 0.00 | 0.00 | 99 | 1014.0 |
| 20260510122250 | 37 | 104 | 0.0 | 0.0 | 0.00 | 0.00 | 0.00 | 99 | 1014.0 |
| 20260510121747 | 38 | 105 | 0.0 | 0.0 | 0.00 | 0.00 | 0.00 | 99 | 1014.0 |
| 20260510121244 | 36 | 105 | 0.0 | 0.0 | 0.00 | 0.00 | 0.00 | 99 | 1014.0 |
| 20260510120742 | 36 | 105 | 0.0 | 0.0 | 0.00 | 0.00 | 0.00 | 99 | 1014.0 |
| 20260510120238 | 37 | 96 | 0.0 | 0.0 | 0.00 | 0.00 | 0.00 | 99 | 1013.8 |
| 20260510115734 | 36 | 106 | 0.0 | 0.0 | 0.00 | 0.00 | 0.00 | 99 | 1014.3 |
| 20260510115232 | 36 | 98 | 0.0 | 0.0 | 0.00 | 0.00 | 0.00 | 99 | 1014.0 |
| 20260510114727 | 36 | 105 | 0.0 | 0.0 | 0.00 | 0.00 | 0.00 | 99 | 1014.0 |
| 20260510114224 | 36 | 105 | 0.0 | 0.0 | 0.00 | 0.00 | 0.00 | 99 | 1014.0 |
| 20260510113720 | 36 | 105 | 0.0 | 0.0 | 0.00 | 0.00 | 0.00 | 99 | 1013.9 |
| 20260510113217 | 37 | 105 | 0.0 | 0.0 | 0.00 | 0.00 | 0.00 | 99 | 1013.8 |
| 20260510112712 | 37 | 105 | 0.0 | 0.0 | 0.00 | 0.00 | 0.00 | 99 | 1013.9 |
| 20260510112210 | 37 | 105 | 0.0 | 0.0 | 0.00 | 0.00 | 0.00 | 99 | 1014.0 |
| 20260510111705 | 37 | 103 | 0.0 | 0.0 | 0.00 | 0.00 | 0.00 | 99 | 1013.9 |
| 20260510111203 | 37 | 103 | 0.0 | 0.0 | 0.00 | 0.00 | 0.00 | 99 | 1013.9 |
| 20260510110702 | 38 | 97 | 0.0 | 0.0 | 0.00 | 0.00 | 0.00 | 99 | 1014.1 |
| 20260510110201 | 38 | 114 | 0.0 | 0.0 | 0.00 | 0.00 | 0.00 | 99 | 1014.0 |
| 20260510105655 | 39 | 124 | 0.0 | 0.0 | 0.00 | 0.00 | 0.00 | 99 | 1014.2 |
| 20260510105150 | 39 | 145 | 0.0 | 0.0 | 0.00 | 0.00 | 0.00 | 99 | 1014.2 |
| 20260510104647 | 39 | 147 | 0.0 | 0.0 | 0.00 | 0.00 | 0.00 | 99 | 1014.3 |
| 20260510104143 | 40 | 148 | 0.0 | 0.0 | 0.00 | 0.00 | 0.00 | 99 | 1014.3 |
| 20260510103635 | 40 | 147 | 0.0 | 0.0 | 0.00 | 0.00 | 0.00 | 99 | 1014.0 |
| 20260510103131 | 40 | 150 | 0.0 | 0.0 | 0.00 | 0.00 | 0.00 | 99 | 1014.2 |
| 20260510102626 | 41 | 148 | 0.0 | 0.0 | 0.00 | 0.00 | 0.00 | 98 | 1014.2 |
| 20260510102122 | 42 | 158 | 3.0 | 3.0 | 0.00 | 0.00 | 0.00 | 98 | 1014.3 |
| 20260510101620 | 42 | 154 | 2.0 | 2.0 | 0.00 | 0.00 | 0.00 | 96 | 1014.1 |
| 20260510101118 | 43 | 162 | 3.0 | 3.0 | 0.00 | 0.00 | 0.00 | 95 | 1014.1 |
| 20260510100614 | 44 | 149 | 3.0 | 3.0 | 0.00 | 0.00 | 0.00 | 94 | 1014.2 |
| 20260510100112 | 44 | 162 | 3.0 | 3.0 | 0.00 | 0.00 | 0.00 | 93 | 1014.2 |
| 20260510095607 | 46 | 155 | 3.0 | 3.0 | 0.00 | 0.00 | 0.00 | 91 | 1014.1 |
| 20260510095102 | 46 | 152 | 1.0 | 2.0 | 0.00 | 0.00 | 0.00 | 90 | 1014.1 |
| 20260510094601 | 46 | 150 | 4.0 | 5.0 | 0.00 | 0.00 | 0.00 | 90 | 1014.1 |
| 20260510094057 | 46 | 140 | 0.0 | 0.0 | 0.00 | 0.00 | 0.00 | 91 | 1014.3 |
| 20260510093554 | 46 | 140 | 0.0 | 0.0 | 0.00 | 0.00 | 0.00 | 91 | 1014.2 |
| 20260510093050 | 46 | 129 | 0.0 | 0.0 | 0.00 | 0.00 | 0.00 | 90 | 1014.1 |
| 20260510092547 | 46 | 144 | 1.0 | 1.0 | 0.00 | 0.00 | 0.00 | 90 | 1014.2 |
| 20260510092046 | 47 | 123 | 0.0 | 0.0 | 0.00 | 0.00 | 0.00 | 89 | 1014.2 |
| 20260510091544 | 47 | 118 | 0.0 | 0.0 | 0.00 | 0.00 | 0.00 | 89 | 1014.1 |
| 20260510091039 | 48 | 111 | 0.0 | 0.0 | 0.00 | 0.00 | 0.00 | 88 | 1014.2 |
| 20260510090537 | 48 | 116 | 2.0 | 2.0 | 0.00 | 0.00 | 0.00 | 88 | 1014.0 |
| 20260510090033 | 48 | 116 | 2.0 | 2.0 | 0.00 | 0.00 | 0.00 | 88 | 1014.2 |
| 20260510085533 | 49 | 110 | 0.0 | 0.0 | 0.00 | 0.00 | 0.00 | 87 | 1014.1 |
| 20260510085029 | 48 | 96 | 1.0 | 2.0 | 0.00 | 0.00 | 0.00 | 88 | 1014.1 |
| 20260510084526 | 48 | 119 | 0.0 | 0.0 | 0.00 | 0.00 | 0.00 | 90 | 1014.3 |
| 20260510084023 | 47 | 100 | 0.0 | 0.0 | 0.00 | 0.00 | 0.00 | 90 | 1014.2 |
| 20260510083519 | 48 | 100 | 0.0 | 0.0 | 0.00 | 0.00 | 0.00 | 89 | 1014.2 |
| 20260510083015 | 48 | 100 | 0.0 | 0.0 | 0.00 | 0.00 | 0.00 | 89 | 1014.3 |
| 20260510082513 | 48 | 100 | 0.0 | 0.0 | 0.00 | 0.00 | 0.00 | 89 | 1014.5 |
| 20260510082013 | 48 | 100 | 0.0 | 0.0 | 0.00 | 0.00 | 0.00 | 89 | 1014.2 |
| 20260510081508 | 48 | 100 | 0.0 | 0.0 | 0.00 | 0.00 | 0.00 | 90 | 1014.3 |
| 20260510081005 | 48 | 100 | 0.0 | 0.0 | 0.00 | 0.00 | 0.00 | 89 | 1014.5 |
| 20260510080503 | 48 | 73 | 3.0 | 3.0 | 0.00 | 0.00 | 0.00 | 89 | 1014.5 |
| 20260510080000 | 49 | 103 | 0.0 | 0.0 | 0.00 | 0.00 | 0.00 | 88 | 1014.5 |
| 20260510075458 | 49 | 83 | 2.0 | 2.0 | 0.00 | 0.00 | 0.00 | 89 | 1014.5 |
| 20260510074954 | 50 | 105 | 0.0 | 0.0 | 0.00 | 0.00 | 0.00 | 88 | 1014.6 |
| 20260510074452 | 50 | 110 | 0.0 | 0.0 | 0.00 | 0.00 | 0.00 | 88 | 1014.2 |
| 20260510073947 | 50 | 100 | 0.0 | 1.0 | 0.00 | 0.00 | 0.00 | 87 | 1014.2 |
| 20260510073443 | 51 | 113 | 1.0 | 2.0 | 0.00 | 0.00 | 0.00 | 86 | 1014.3 |
| 20260510072940 | 50 | 122 | 1.0 | 3.0 | 0.00 | 0.00 | 0.00 | 89 | 1014.2 |
| 20260510072437 | 50 | 131 | 0.0 | 0.0 | 0.00 | 0.00 | 0.00 | 89 | 1014.2 |
| 20260510071932 | 49 | 125 | 0.0 | 0.0 | 0.00 | 0.00 | 0.00 | 90 | 1014.2 |
| 20260510071429 | 49 | 131 | 0.0 | 0.0 | 0.00 | 0.00 | 0.00 | 91 | 1014.5 |
| 20260510070927 | 49 | 121 | 0.0 | 0.0 | 0.00 | 0.00 | 0.00 | 91 | 1014.3 |
| 20260510070424 | 49 | 129 | 0.0 | 0.0 | 0.00 | 0.00 | 0.00 | 90 | 1014.0 |
| 20260510065920 | 49 | 133 | 0.0 | 0.0 | 0.00 | 0.00 | 0.00 | 90 | 1014.2 |
| 20260510065416 | 50 | 141 | 0.0 | 0.0 | 0.00 | 0.00 | 0.00 | 89 | 1014.2 |
| 20260510064913 | 50 | 142 | 0.0 | 0.0 | 0.00 | 0.00 | 0.00 | 89 | 1014.3 |
| 20260510064411 | 50 | 129 | 0.0 | 0.0 | 0.00 | 0.00 | 0.00 | 89 | 1014.5 |
| 20260510063907 | 50 | 129 | 0.0 | 0.0 | 0.00 | 0.00 | 0.00 | 88 | 1014.3 |
| 20260510063403 | 50 | 137 | 1.0 | 1.0 | 0.00 | 0.00 | 0.00 | 89 | 1014.5 |
| 20260510062901 | 51 | 127 | 0.0 | 0.0 | 0.00 | 0.00 | 0.00 | 88 | 1014.6 |
| 20260510062355 | 51 | 127 | 3.0 | 3.0 | 0.00 | 0.00 | 0.00 | 87 | 1014.3 |
| 20260510061851 | 51 | 104 | 4.0 | 5.0 | 0.00 | 0.00 | 0.00 | 87 | 1014.2 |
| 20260510061348 | 51 | 122 | 6.0 | 7.0 | 0.00 | 0.00 | 0.00 | 87 | 1014.3 |
| 20260510060844 | 51 | 130 | 6.0 | 7.0 | 0.00 | 0.00 | 0.00 | 87 | 1014.3 |
| 20260510060342 | 51 | 105 | 4.0 | 5.0 | 0.00 | 0.00 | 0.00 | 86 | 1014.2 |
| 20260510055838 | 51 | 106 | 5.0 | 6.0 | 0.00 | 0.00 | 0.00 | 87 | 1014.5 |
| 20260510055337 | 51 | 122 | 6.0 | 7.0 | 0.00 | 0.00 | 0.00 | 87 | 1014.5 |
| 20260510054836 | 51 | 114 | 4.0 | 5.0 | 0.00 | 0.00 | 0.00 | 88 | 1014.3 |
| 20260510054332 | 51 | 133 | 3.0 | 3.0 | 0.00 | 0.00 | 0.00 | 88 | 1014.3 |
| 20260510053827 | 51 | 121 | 2.0 | 2.0 | 0.00 | 0.00 | 0.00 | 88 | 1014.2 |
| 20260510053323 | 51 | 119 | 3.0 | 3.0 | 0.00 | 0.00 | 0.00 | 87 | 1014.5 |
| 20260510052820 | 51 | 111 | 4.0 | 6.0 | 0.00 | 0.00 | 0.00 | 87 | 1014.5 |
| 20260510052315 | 52 | 119 | 3.0 | 5.0 | 0.00 | 0.00 | 0.00 | 86 | 1014.5 |
| 20260510051812 | 52 | 113 | 7.0 | 9.0 | 0.00 | 0.00 | 0.00 | 86 | 1014.3 |
| 20260510051309 | 52 | 120 | 9.0 | 10.0 | 0.00 | 0.00 | 0.00 | 86 | 1014.3 |
| 20260510050806 | 52 | 121 | 7.0 | 9.0 | 0.00 | 0.00 | 0.00 | 86 | 1014.6 |
| 20260510050302 | 52 | 104 | 9.0 | 13.0 | 0.00 | 0.00 | 0.00 | 85 | 1014.8 |
| 20260510045800 | 52 | 144 | 7.0 | 8.0 | 0.00 | 0.00 | 0.00 | 85 | 1014.2 |
| 20260510045256 | 53 | 150 | 5.0 | 7.0 | 0.00 | 0.00 | 0.00 | 84 | 1014.5 |
| 20260510044753 | 53 | 141 | 5.0 | 6.0 | 0.00 | 0.00 | 0.00 | 84 | 1014.5 |
| 20260510044250 | 53 | 124 | 6.0 | 7.0 | 0.00 | 0.00 | 0.00 | 83 | 1014.7 |
| 20260510043746 | 54 | 140 | 3.0 | 3.0 | 0.00 | 0.00 | 0.00 | 82 | 1014.2 |
| 20260510043243 | 54 | 126 | 6.0 | 7.0 | 0.00 | 0.00 | 0.00 | 80 | 1014.5 |
| 20260510042740 | 55 | 133 | 7.0 | 8.0 | 0.00 | 0.00 | 0.00 | 79 | 1014.2 |
| 20260510042236 | 55 | 126 | 8.0 | 9.0 | 0.00 | 0.00 | 0.00 | 79 | 1014.2 |
| 20260510041733 | 56 | 111 | 9.0 | 11.0 | 0.00 | 0.00 | 0.00 | 78 | 1014.5 |
| 20260510041230 | 56 | 123 | 10.0 | 11.0 | 0.00 | 0.00 | 0.00 | 77 | 1014.5 |
| 20260510040727 | 57 | 113 | 10.0 | 11.0 | 0.00 | 0.00 | 0.00 | 76 | 1014.2 |
| 20260510040224 | 57 | 130 | 6.0 | 9.0 | 0.00 | 0.00 | 0.00 | 75 | 1014.2 |
| 20260510035719 | 57 | 101 | 7.0 | 7.0 | 0.00 | 0.00 | 0.00 | 74 | 1014.0 |
| 20260510035215 | 57 | 105 | 10.0 | 11.0 | 0.00 | 0.00 | 0.00 | 74 | 1014.0 |
| 20260510034711 | 57 | 122 | 8.0 | 9.0 | 0.00 | 0.00 | 0.00 | 73 | 1013.9 |
| 20260510034210 | 58 | 103 | 7.0 | 8.0 | 0.00 | 0.00 | 0.00 | 72 | 1013.9 |
| 20260510033705 | 58 | 110 | 6.0 | 7.0 | 0.00 | 0.00 | 0.00 | 70 | 1014.1 |
| 20260510033203 | 58 | 102 | 6.0 | 8.0 | 0.00 | 0.00 | 0.00 | 69 | 1013.9 |
| 20260510032659 | 59 | 112 | 6.0 | 7.0 | 0.00 | 0.00 | 0.00 | 66 | 1013.7 |
| 20260510032155 | 59 | 108 | 5.0 | 7.0 | 0.00 | 0.00 | 0.00 | 66 | 1013.8 |
| 20260510031649 | 59 | 145 | 1.0 | 2.0 | 0.00 | 0.00 | 0.00 | 66 | 1013.4 |
| 20260510031146 | 60 | 128 | 2.0 | 2.0 | 0.00 | 0.00 | 0.00 | 66 | 1013.4 |
| 20260510030641 | 61 | 141 | 2.0 | 2.0 | 0.00 | 0.00 | 0.00 | 65 | 1013.5 |
| 20260510030139 | 61 | 141 | 2.0 | 2.0 | 0.00 | 0.00 | 0.00 | 65 | 1013.4 |
| 20260510025636 | 61 | 138 | 2.0 | 2.0 | 0.00 | 0.00 | 0.00 | 64 | 1013.4 |
| 20260510025133 | 62 | 140 | 1.0 | 1.0 | 0.00 | 0.00 | 0.00 | 63 | 1013.4 |
| 20260510024630 | 63 | 120 | 3.0 | 3.0 | 0.00 | 0.00 | 0.00 | 62 | 1013.2 |
| 20260510024126 | 63 | 131 | 5.0 | 6.0 | 0.00 | 0.00 | 0.00 | 62 | 1013.1 |
| 20260510023622 | 63 | 144 | 3.0 | 3.0 | 0.00 | 0.00 | 0.00 | 61 | 1013.0 |
| 20260510023120 | 64 | 116 | 3.0 | 3.0 | 0.00 | 0.00 | 0.00 | 60 | 1013.1 |
| 20260510022619 | 64 | 120 | 2.0 | 2.0 | 0.00 | 0.00 | 0.00 | 60 | 1013.1 |
| 20260510022114 | 64 | 113 | 3.0 | 3.0 | 0.00 | 0.00 | 0.00 | 60 | 1012.7 |
| 20260510021610 | 64 | 114 | 3.0 | 3.0 | 0.00 | 0.00 | 0.00 | 60 | 1013.1 |
| 20260510021108 | 64 | 119 | 3.0 | 3.0 | 0.00 | 0.00 | 0.00 | 60 | 1013.0 |
| 20260510020602 | 64 | 120 | 4.0 | 5.0 | 0.00 | 0.00 | 0.00 | 60 | 1013.0 |
| 20260510020058 | 64 | 135 | 3.0 | 3.0 | 0.00 | 0.00 | 0.00 | 60 | 1013.0 |
| 20260510015554 | 64 | 137 | 0.0 | 0.0 | 0.00 | 0.00 | 0.00 | 60 | 1012.8 |
| 20260510015050 | 64 | 137 | 0.0 | 0.0 | 0.00 | 0.00 | 0.00 | 60 | 1012.9 |
| 20260510014546 | 65 | 138 | 0.0 | 0.0 | 0.00 | 0.00 | 0.00 | 61 | 1013.1 |
| 20260510014044 | 65 | 138 | 0.0 | 0.0 | 0.00 | 0.00 | 0.00 | 61 | 1012.8 |
| 20260510013538 | 65 | 139 | 1.0 | 2.0 | 0.00 | 0.00 | 0.00 | 59 | 1013.0 |
| 20260510013034 | 65 | 139 | 0.0 | 0.0 | 0.00 | 0.00 | 0.00 | 58 | 1012.9 |
| 20260510012528 | 65 | 141 | 0.0 | 0.0 | 0.00 | 0.00 | 0.00 | 58 | 1012.7 |
| 20260510012025 | 65 | 139 | 0.0 | 0.0 | 0.00 | 0.00 | 0.00 | 59 | 1013.4 |
| 20260510011524 | 65 | 138 | 0.0 | 0.0 | 0.00 | 0.00 | 0.00 | 59 | 1013.0 |
| 20260510011020 | 65 | 134 | 2.0 | 2.0 | 0.00 | 0.00 | 0.00 | 58 | 1013.2 |
| 20260510010518 | 65 | 133 | 1.0 | 2.0 | 0.00 | 0.00 | 0.00 | 58 | 1013.0 |
| 20260510010014 | 65 | 132 | 2.0 | 2.0 | 0.00 | 0.00 | 0.00 | 59 | 1013.1 |
| 20260510005510 | 65 | 132 | 4.0 | 5.0 | 0.00 | 0.00 | 0.00 | 59 | 1013.2 |
| 20260510005008 | 65 | 133 | 2.0 | 2.0 | 0.00 | 0.00 | 0.00 | 58 | 1013.1 |
| 20260510004505 | 65 | 205 | 0.0 | 0.0 | 0.00 | 0.00 | 0.00 | 58 | 1013.2 |
| 20260510004003 | 66 | 205 | 2.0 | 2.0 | 0.00 | 0.00 | 0.00 | 58 | 1013.1 |
| 20260510003459 | 65 | 205 | 0.0 | 0.0 | 0.00 | 0.00 | 0.00 | 58 | 1013.2 |
| 20260510002955 | 65 | 205 | 0.0 | 0.0 | 0.00 | 0.00 | 0.00 | 59 | 1013.0 |
| 20260510002451 | 65 | 205 | 0.0 | 0.0 | 0.00 | 0.00 | 0.00 | 59 | 1013.2 |
| 20260510001947 | 65 | 205 | 0.0 | 0.0 | 0.00 | 0.00 | 0.00 | 59 | 1013.2 |
| 20260510001445 | 65 | 205 | 0.0 | 0.0 | 0.00 | 0.00 | 0.00 | 59 | 1013.1 |
| 20260510000943 | 64 | 205 | 0.0 | 0.0 | 0.00 | 0.00 | 0.00 | 60 | 1013.1 |
| 20260510000440 | 64 | 205 | 0.0 | 0.0 | 0.00 | 0.00 | 0.00 | 61 | 1013.4 |
| 20260509235935 | 64 | 205 | 0.0 | 0.0 | 0.00 | 0.00 | 0.00 | 63 | 1013.1 |
| 20260509235432 | 64 | 205 | 0.0 | 0.0 | 0.00 | 0.00 | 0.00 | 62 | 1013.0 |
| 20260509234928 | 64 | 205 | 1.0 | 1.0 | 0.00 | 0.00 | 0.00 | 62 | 1013.2 |
| 20260509234425 | 64 | 206 | 0.0 | 0.0 | 0.00 | 0.00 | 0.00 | 61 | 1013.2 |
| 20260509233923 | 64 | 206 | 0.0 | 0.0 | 0.00 | 0.00 | 0.00 | 62 | 1013.4 |
| 20260509233420 | 63 | 206 | 0.0 | 0.0 | 0.00 | 0.00 | 0.00 | 65 | 1013.1 |
| 20260509232916 | 63 | 246 | 4.0 | 5.0 | 0.00 | 0.00 | 0.00 | 66 | 1013.2 |
| 20260509232414 | 62 | 182 | 2.0 | 2.0 | 0.00 | 0.00 | 0.00 | 66 | 1013.5 |
| 20260509231909 | 64 | 231 | 5.0 | 6.0 | 0.00 | 0.00 | 0.00 | 67 | 1013.1 |
| 20260509231407 | 66 | 214 | 8.0 | 9.0 | 0.00 | 0.00 | 0.00 | 56 | 1013.1 |
| 20260509230905 | 65 | 161 | 1.0 | 1.0 | 0.00 | 0.00 | 0.00 | 56 | 1013.0 |
| 20260509230401 | 66 | 194 | 4.0 | 5.0 | 0.00 | 0.00 | 0.00 | 56 | 1013.2 |
| 20260509225857 | 65 | 172 | 3.0 | 3.0 | 0.00 | 0.00 | 0.00 | 56 | 1013.2 |
| 20260509225354 | 65 | 157 | 2.0 | 2.0 | 0.00 | 0.00 | 0.00 | 56 | 1013.1 |
| 20260509224849 | 66 | 210 | 3.0 | 3.0 | 0.00 | 0.00 | 0.00 | 55 | 1013.2 |
| 20260509224345 | 65 | 202 | 5.0 | 5.0 | 0.00 | 0.00 | 0.00 | 56 | 1013.1 |
| 20260509223843 | 65 | 241 | 6.0 | 7.0 | 0.00 | 0.00 | 0.00 | 56 | 1013.4 |
| 20260509223339 | 65 | 129 | 0.0 | 0.0 | 0.00 | 0.00 | 0.00 | 55 | 1013.4 |
| 20260509222837 | 66 | 195 | 3.0 | 5.0 | 0.00 | 0.00 | 0.00 | 55 | 1013.1 |
| 20260509222332 | 65 | 261 | 2.0 | 3.0 | 0.00 | 0.00 | 0.00 | 55 | 1013.4 |
| 20260509221827 | 66 | 298 | 5.0 | 7.0 | 0.00 | 0.00 | 0.00 | 55 | 1013.4 |
| 20260509221325 | 66 | 251 | 9.0 | 10.0 | 0.00 | 0.00 | 0.00 | 54 | 1013.2 |
| 20260509220825 | 66 | 213 | 5.0 | 6.0 | 0.00 | 0.00 | 0.00 | 54 | 1013.6 |
| 20260509220321 | 66 | 125 | 0.0 | 0.0 | 0.00 | 0.00 | 0.00 | 55 | 1013.5 |
| 20260509215817 | 65 | 148 | 1.0 | 1.0 | 0.00 | 0.00 | 0.00 | 55 | 1013.5 |
| 20260509215314 | 65 | 236 | 5.0 | 5.0 | 0.00 | 0.00 | 0.00 | 54 | 1013.5 |
| 20260509214811 | 65 | 189 | 1.0 | 2.0 | 0.00 | 0.00 | 0.00 | 54 | 1013.7 |
| 20260509214308 | 65 | 203 | 2.0 | 3.0 | 0.00 | 0.00 | 0.00 | 54 | 1013.7 |
| 20260509213805 | 66 | 239 | 3.0 | 3.0 | 0.00 | 0.00 | 0.00 | 54 | 1013.5 |
| 20260509213300 | 66 | 305 | 3.0 | 3.0 | 0.00 | 0.00 | 0.00 | 54 | 1013.9 |
| 20260509212758 | 66 | 207 | 3.0 | 3.0 | 0.00 | 0.00 | 0.00 | 54 | 1013.6 |
| 20260509212255 | 67 | 231 | 6.0 | 7.0 | 0.00 | 0.00 | 0.00 | 55 | 1013.6 |
| 20260509211751 | 66 | 223 | 6.0 | 7.0 | 0.00 | 0.00 | 0.00 | 54 | 1013.6 |
| 20260509211247 | 65 | 269 | 3.0 | 3.0 | 0.00 | 0.00 | 0.00 | 54 | 1013.9 |
| 20260509210744 | 65 | 237 | 5.0 | 7.0 | 0.00 | 0.00 | 0.00 | 54 | 1013.7 |
| 20260509210242 | 66 | 257 | 5.0 | 8.0 | 0.00 | 0.00 | 0.00 | 54 | 1013.7 |
| 20260509205741 | 65 | 198 | 3.0 | 5.0 | 0.00 | 0.00 | 0.00 | 54 | 1013.5 |
| 20260509205236 | 67 | 230 | 6.0 | 6.0 | 0.00 | 0.00 | 0.00 | 52 | 1013.7 |
| 20260509204732 | 66 | 329 | 3.0 | 5.0 | 0.00 | 0.00 | 0.00 | 53 | 1013.8 |
| 20260509204229 | 66 | 245 | 4.0 | 5.0 | 0.00 | 0.00 | 0.00 | 54 | 1013.8 |
| 20260509203725 | 67 | 212 | 7.0 | 9.0 | 0.00 | 0.00 | 0.00 | 52 | 1013.7 |
| 20260509203223 | 67 | 165 | 6.0 | 7.0 | 0.00 | 0.00 | 0.00 | 53 | 1013.8 |
| 20260509202719 | 65 | 13 | 2.0 | 2.0 | 0.00 | 0.00 | 0.00 | 53 | 1013.8 |
| 20260509202214 | 64 | 277 | 4.0 | 5.0 | 0.00 | 0.00 | 0.00 | 53 | 1013.7 |
| 20260509201709 | 65 | 221 | 8.0 | 9.0 | 0.00 | 0.00 | 0.00 | 52 | 1013.6 |
| 20260509201206 | 67 | 217 | 9.0 | 11.0 | 0.00 | 0.00 | 0.00 | 53 | 1013.4 |
| 20260509200702 | 66 | 181 | 2.0 | 3.0 | 0.00 | 0.00 | 0.00 | 51 | 1013.4 |
| 20260509200157 | 66 | 236 | 8.0 | 9.0 | 0.00 | 0.00 | 0.00 | 52 | 1013.7 |
| 20260509195654 | 65 | 213 | 5.0 | 6.0 | 0.00 | 0.00 | 0.00 | 53 | 1013.5 |
| 20260509195149 | 66 | 235 | 11.0 | 11.0 | 0.00 | 0.00 | 0.00 | 52 | 1013.6 |
| 20260509194643 | 67 | 218 | 4.0 | 5.0 | 0.00 | 0.00 | 0.00 | 52 | 1013.7 |
| 20260509194140 | 66 | 328 | 1.0 | 5.0 | 0.00 | 0.00 | 0.00 | 54 | 1013.6 |
| 20260509193636 | 65 | 190 | 2.0 | 5.0 | 0.00 | 0.00 | 0.00 | 53 | 1013.5 |
| 20260509193132 | 64 | 167 | 8.0 | 9.0 | 0.00 | 0.00 | 0.00 | 54 | 1013.7 |
| 20260509192629 | 64 | 175 | 6.0 | 7.0 | 0.00 | 0.00 | 0.00 | 53 | 1013.7 |
| 20260509192123 | 63 | 235 | 6.0 | 7.0 | 0.00 | 0.00 | 0.00 | 53 | 1013.7 |
| 20260509191618 | 64 | 231 | 9.0 | 10.0 | 0.00 | 0.00 | 0.00 | 53 | 1013.7 |
| 20260509191115 | 64 | 171 | 2.0 | 2.0 | 0.00 | 0.00 | 0.00 | 53 | 1013.9 |
| 20260509190611 | 63 | 181 | 3.0 | 3.0 | 0.00 | 0.00 | 0.00 | 53 | 1013.8 |
| 20260509190109 | 64 | 208 | 6.0 | 7.0 | 0.00 | 0.00 | 0.00 | 53 | 1013.9 |
| 20260509185606 | 64 | 271 | 6.0 | 7.0 | 0.00 | 0.00 | 0.00 | 53 | 1013.5 |